owner,sensor,date,latitude,longitude,vertical_datum,mass_concentration_of_oxygen_in_sea_water,qcFlag 
SCCF RECON,ioos:station:SCCF:11:1,2017-08-01T00:00:00Z,26.4679,-82.0631,1.97,4.31,1111122 
SCCF RECON,ioos:station:SCCF:11:1,2017-08-01T01:00:00Z,26.4679,-82.0631,1.996,4.75,1111122 
SCCF RECON,ioos:station:SCCF:11:1,2017-08-01T02:00:00Z,26.4679,-82.0631,2.017,3.7,1111122 
SCCF RECON,ioos:station:SCCF:11:1,2017-08-01T03:00:00Z,26.4679,-82.0631,2.02,4.7,1111122 
SCCF RECON,ioos:station:SCCF:11:1,2017-08-01T04:00:00Z,26.4679,-82.0631,2.0,4.67,1111122 
SCCF RECON,ioos:station:SCCF:11:1,2017-08-01T05:00:00Z,26.4679,-82.0631,1.98,4.36,1111122 
SCCF RECON,ioos:station:SCCF:11:1,2017-08-01T06:00:00Z,26.4679,-82.0631,1.92,4.49,1111122 
SCCF RECON,ioos:station:SCCF:11:1,2017-08-01T07:00:00Z,26.4679,-82.0631,1.97,4.37,1111122 
SCCF RECON,ioos:station:SCCF:11:1,2017-08-01T08:00:00Z,26.4679,-82.0631,1.96,4.32,1111122 
SCCF RECON,ioos:station:SCCF:11:1,2017-08-01T09:00:00Z,26.4679,-82.0631,2.0,4.3,1111122 
SCCF RECON,ioos:station:SCCF:11:1,2017-08-01T10:00:00Z,26.4679,-82.0631,2.079,4.19,1111122 
SCCF RECON,ioos:station:SCCF:11:1,2017-08-01T11:00:00Z,26.4679,-82.0631,2.09,3.85,1111122 
SCCF RECON,ioos:station:SCCF:11:1,2017-08-01T12:00:00Z,26.4679,-82.0631,2.16,3.68,1111122 
SCCF RECON,ioos:station:SCCF:11:1,2017-08-01T13:00:00Z,26.4679,-82.0631,2.19,4.06,1111122 
SCCF RECON,ioos:station:SCCF:11:1,2017-08-01T14:00:00Z,26.4679,-82.0631,2.2,4.13,1111122 
SCCF RECON,ioos:station:SCCF:11:1,2017-08-01T15:00:00Z,26.4679,-82.0631,2.16,4.41,1111122 
SCCF RECON,ioos:station:SCCF:11:1,2017-08-01T16:00:00Z,26.4679,-82.0631,2.1,4.33,1111122 
SCCF RECON,ioos:station:SCCF:11:1,2017-08-01T17:00:00Z,26.4679,-82.0631,2.03,4.48,1111122 
SCCF RECON,ioos:station:SCCF:11:1,2017-08-01T18:00:00Z,26.4679,-82.0631,1.93,4.72,1111122 
SCCF RECON,ioos:station:SCCF:11:1,2017-08-01T19:00:00Z,26.4679,-82.0631,1.849,5.12,1111122 
SCCF RECON,ioos:station:SCCF:11:1,2017-08-01T20:00:00Z,26.4679,-82.0631,1.76,5.27,1111122 
SCCF RECON,ioos:station:SCCF:11:1,2017-08-01T21:00:00Z,26.4679,-82.0631,1.69,5.77,1111122 
SCCF RECON,ioos:station:SCCF:11:1,2017-08-01T22:00:00Z,26.4679,-82.0631,1.7,7.0,1111122 
SCCF RECON,ioos:station:SCCF:11:1,2017-08-01T23:00:00Z,26.4679,-82.0631,1.76,5.37,1111122 
SCCF RECON,ioos:station:SCCF:11:1,2017-08-02T00:00:00Z,26.4679,-82.0631,1.84,4.56,1111122 
SCCF RECON,ioos:station:SCCF:11:1,2017-08-02T01:00:00Z,26.4679,-82.0631,1.912,5.06,1111122 
SCCF RECON,ioos:station:SCCF:11:1,2017-08-02T02:00:00Z,26.4679,-82.0631,1.95,5.26,1111122 
SCCF RECON,ioos:station:SCCF:11:1,2017-08-02T03:00:00Z,26.4679,-82.0631,1.94,5.21,1111122 
SCCF RECON,ioos:station:SCCF:11:1,2017-08-02T04:00:00Z,26.4679,-82.0631,1.95,4.74,1111122 
SCCF RECON,ioos:station:SCCF:11:1,2017-08-02T05:00:00Z,26.4679,-82.0631,1.97,4.15,1111122 
SCCF RECON,ioos:station:SCCF:11:1,2017-08-02T06:00:00Z,26.4679,-82.0631,2.01,4.41,1111122 
SCCF RECON,ioos:station:SCCF:11:1,2017-08-02T07:00:00Z,26.4679,-82.0631,1.982,4.84,1111122 
SCCF RECON,ioos:station:SCCF:11:1,2017-08-02T08:00:00Z,26.4679,-82.0631,1.91,4.76,1111122 
SCCF RECON,ioos:station:SCCF:11:1,2017-08-02T09:00:00Z,26.4679,-82.0631,1.91,4.44,1111122 
SCCF RECON,ioos:station:SCCF:11:1,2017-08-02T10:00:00Z,26.4679,-82.0631,1.989,4.46,1111122 
SCCF RECON,ioos:station:SCCF:11:1,2017-08-02T11:00:00Z,26.4679,-82.0631,2.06,3.8,1111122 
SCCF RECON,ioos:station:SCCF:11:1,2017-08-02T12:00:00Z,26.4679,-82.0631,2.131,4.39,1111122 
SCCF RECON,ioos:station:SCCF:11:1,2017-08-02T13:00:00Z,26.4679,-82.0631,2.2,3.61,1111122 
SCCF RECON,ioos:station:SCCF:11:1,2017-08-02T14:00:00Z,26.4679,-82.0631,2.25,4.05,1111122 
SCCF RECON,ioos:station:SCCF:11:1,2017-08-02T15:00:00Z,26.4679,-82.0631,2.25,4.51,1111122 
SCCF RECON,ioos:station:SCCF:11:1,2017-08-02T16:00:00Z,26.4679,-82.0631,2.21,5.03,1111122 
SCCF RECON,ioos:station:SCCF:11:1,2017-08-02T17:00:00Z,26.4679,-82.0631,2.14,5.38,1111122 
SCCF RECON,ioos:station:SCCF:11:1,2017-08-02T18:00:00Z,26.4679,-82.0631,2.07,5.63,1111122 
SCCF RECON,ioos:station:SCCF:11:1,2017-08-02T19:00:00Z,26.4679,-82.0631,1.966,5.92,1111122 
SCCF RECON,ioos:station:SCCF:11:1,2017-08-02T20:00:00Z,26.4679,-82.0631,1.86,6.31,1111122 
SCCF RECON,ioos:station:SCCF:11:1,2017-08-02T21:00:00Z,26.4679,-82.0631,1.75,6.47,1111122 
SCCF RECON,ioos:station:SCCF:11:1,2017-08-02T22:00:00Z,26.4679,-82.0631,1.69,6.87,1111122 
SCCF RECON,ioos:station:SCCF:11:1,2017-08-02T23:00:00Z,26.4679,-82.0631,1.695,5.86,1111122 
SCCF RECON,ioos:station:SCCF:11:1,2017-08-03T00:00:00Z,26.4679,-82.0631,1.75,6.14,1111122 
SCCF RECON,ioos:station:SCCF:11:1,2017-08-03T01:00:00Z,26.4679,-82.0631,1.851,5.93,1111122 
SCCF RECON,ioos:station:SCCF:11:1,2017-08-03T02:00:00Z,26.4679,-82.0631,1.92,6.06,1111122 
SCCF RECON,ioos:station:SCCF:11:1,2017-08-03T03:00:00Z,26.4679,-82.0631,1.98,5.95,1111122 
SCCF RECON,ioos:station:SCCF:11:1,2017-08-03T04:00:00Z,26.4679,-82.0631,2.042,5.73,1111122 
SCCF RECON,ioos:station:SCCF:11:1,2017-08-03T05:00:00Z,26.4679,-82.0631,2.08,5.64,1111122 
SCCF RECON,ioos:station:SCCF:11:1,2017-08-03T06:00:00Z,26.4679,-82.0631,2.066,5.62,1111122 
SCCF RECON,ioos:station:SCCF:11:1,2017-08-03T07:00:00Z,26.4679,-82.0631,2.04,5.3,1111122 
SCCF RECON,ioos:station:SCCF:11:1,2017-08-03T08:00:00Z,26.4679,-82.0631,2.01,5.5,1111122 
SCCF RECON,ioos:station:SCCF:11:1,2017-08-03T09:00:00Z,26.4679,-82.0631,1.99,3.76,1111122 
SCCF RECON,ioos:station:SCCF:11:1,2017-08-03T10:00:00Z,26.4679,-82.0631,1.97,4.75,1111122 
SCCF RECON,ioos:station:SCCF:11:1,2017-08-03T11:00:00Z,26.4679,-82.0631,1.99,4.71,1111122 
SCCF RECON,ioos:station:SCCF:11:1,2017-08-03T12:00:00Z,26.4679,-82.0631,2.04,5.09,1111122 
SCCF RECON,ioos:station:SCCF:11:1,2017-08-03T13:00:00Z,26.4679,-82.0631,2.14,4.87,1111122 
SCCF RECON,ioos:station:SCCF:11:1,2017-08-03T14:00:00Z,26.4679,-82.0631,2.21,5.01,1111122 
SCCF RECON,ioos:station:SCCF:11:1,2017-08-03T15:00:00Z,26.4679,-82.0631,2.253,4.92,1111122 
SCCF RECON,ioos:station:SCCF:11:1,2017-08-03T16:00:00Z,26.4679,-82.0631,2.27,4.66,1111122 
SCCF RECON,ioos:station:SCCF:11:1,2017-08-03T17:00:00Z,26.4679,-82.0631,2.26,5.79,1111122 
SCCF RECON,ioos:station:SCCF:11:1,2017-08-03T18:00:00Z,26.4679,-82.0631,2.187,5.98,1111122 
SCCF RECON,ioos:station:SCCF:11:1,2017-08-03T19:00:00Z,26.4679,-82.0631,2.09,6.27,1111122 
SCCF RECON,ioos:station:SCCF:11:1,2017-08-03T20:00:00Z,26.4679,-82.0631,1.98,6.53,1111122 
SCCF RECON,ioos:station:SCCF:11:1,2017-08-03T21:00:00Z,26.4679,-82.0631,1.85,6.43,1111122 
SCCF RECON,ioos:station:SCCF:11:1,2017-08-03T22:00:00Z,26.4679,-82.0631,1.76,6.73,1111122 
SCCF RECON,ioos:station:SCCF:11:1,2017-08-03T23:00:00Z,26.4679,-82.0631,1.681,6.76,1111122 
SCCF RECON,ioos:station:SCCF:11:1,2017-08-04T00:00:00Z,26.4679,-82.0631,1.661,6.25,1111122 
SCCF RECON,ioos:station:SCCF:11:1,2017-08-04T01:00:00Z,26.4679,-82.0631,1.77,6.0,1111122 
SCCF RECON,ioos:station:SCCF:11:1,2017-08-04T02:00:00Z,26.4679,-82.0631,1.888,6.01,1111122 
SCCF RECON,ioos:station:SCCF:11:1,2017-08-04T03:00:00Z,26.4679,-82.0631,1.977,6.19,1111122 
SCCF RECON,ioos:station:SCCF:11:1,2017-08-04T04:00:00Z,26.4679,-82.0631,2.05,6.01,1111122 
SCCF RECON,ioos:station:SCCF:11:1,2017-08-04T05:00:00Z,26.4679,-82.0631,2.1,5.07,1111122 
SCCF RECON,ioos:station:SCCF:11:1,2017-08-04T06:00:00Z,26.4679,-82.0631,2.11,5.45,1111122 
SCCF RECON,ioos:station:SCCF:11:1,2017-08-04T07:00:00Z,26.4679,-82.0631,2.08,5.33,1111122 
SCCF RECON,ioos:station:SCCF:11:1,2017-08-04T08:00:00Z,26.4679,-82.0631,2.02,5.39,1111122 
SCCF RECON,ioos:station:SCCF:11:1,2017-08-04T09:00:00Z,26.4679,-82.0631,1.96,5.09,1111122 
SCCF RECON,ioos:station:SCCF:11:1,2017-08-04T10:00:00Z,26.4679,-82.0631,1.91,4.62,1111122 
SCCF RECON,ioos:station:SCCF:11:1,2017-08-04T11:00:00Z,26.4679,-82.0631,1.911,4.82,1111122 
SCCF RECON,ioos:station:SCCF:11:1,2017-08-04T12:00:00Z,26.4679,-82.0631,1.95,5.0,1111122 
SCCF RECON,ioos:station:SCCF:11:1,2017-08-04T13:00:00Z,26.4679,-82.0631,2.04,5.15,1111122 
SCCF RECON,ioos:station:SCCF:11:1,2017-08-04T14:00:00Z,26.4679,-82.0631,2.14,4.61,1111122 
SCCF RECON,ioos:station:SCCF:11:1,2017-08-04T15:00:00Z,26.4679,-82.0631,2.21,4.83,1111122 
SCCF RECON,ioos:station:SCCF:11:1,2017-08-04T16:00:00Z,26.4679,-82.0631,2.26,4.67,1111122 
SCCF RECON,ioos:station:SCCF:11:1,2017-08-04T17:00:00Z,26.4679,-82.0631,2.27,4.52,1111122 
SCCF RECON,ioos:station:SCCF:11:1,2017-08-04T18:00:00Z,26.4679,-82.0631,2.24,5.83,1111122 
SCCF RECON,ioos:station:SCCF:11:1,2017-08-04T19:00:00Z,26.4679,-82.0631,2.136,5.81,1111122 
SCCF RECON,ioos:station:SCCF:11:1,2017-08-04T20:00:00Z,26.4679,-82.0631,2.03,5.82,1111122 
SCCF RECON,ioos:station:SCCF:11:1,2017-08-04T21:00:00Z,26.4679,-82.0631,1.9,5.91,1111122 
SCCF RECON,ioos:station:SCCF:11:1,2017-08-04T22:00:00Z,26.4679,-82.0631,1.789,6.0,1111122 
SCCF RECON,ioos:station:SCCF:11:1,2017-08-04T23:00:00Z,26.4679,-82.0631,1.69,6.29,1111122 
SCCF RECON,ioos:station:SCCF:11:1,2017-08-05T00:00:00Z,26.4679,-82.0631,1.65,6.24,1111122 
SCCF RECON,ioos:station:SCCF:11:1,2017-08-05T01:00:00Z,26.4679,-82.0631,1.666,5.6,1111122 
SCCF RECON,ioos:station:SCCF:11:1,2017-08-05T02:00:00Z,26.4679,-82.0631,1.79,5.88,1111122 
SCCF RECON,ioos:station:SCCF:11:1,2017-08-05T03:00:00Z,26.4679,-82.0631,1.91,5.76,1111122 
SCCF RECON,ioos:station:SCCF:11:1,2017-08-05T04:00:00Z,26.4679,-82.0631,2.01,5.5,1111122 
SCCF RECON,ioos:station:SCCF:11:1,2017-08-05T05:00:00Z,26.4679,-82.0631,2.1,5.21,1111122 
SCCF RECON,ioos:station:SCCF:11:1,2017-08-05T06:00:00Z,26.4679,-82.0631,2.15,5.12,1111122 
SCCF RECON,ioos:station:SCCF:11:1,2017-08-05T07:00:00Z,26.4679,-82.0631,2.16,5.15,1111122 
SCCF RECON,ioos:station:SCCF:11:1,2017-08-05T08:00:00Z,26.4679,-82.0631,2.108,5.21,1111122 
SCCF RECON,ioos:station:SCCF:11:1,2017-08-05T09:00:00Z,26.4679,-82.0631,2.06,4.54,1111122 
SCCF RECON,ioos:station:SCCF:11:1,2017-08-05T10:00:00Z,26.4679,-82.0631,2.03,4.49,1111122 
SCCF RECON,ioos:station:SCCF:11:1,2017-08-05T11:00:00Z,26.4679,-82.0631,2.01,4.44,1111122 
SCCF RECON,ioos:station:SCCF:11:1,2017-08-05T12:00:00Z,26.4679,-82.0631,2.02,4.42,1111122 
SCCF RECON,ioos:station:SCCF:11:1,2017-08-05T13:00:00Z,26.4679,-82.0631,2.07,4.62,1111122 
SCCF RECON,ioos:station:SCCF:11:1,2017-08-05T14:00:00Z,26.4679,-82.0631,2.15,4.96,1111122 
SCCF RECON,ioos:station:SCCF:11:1,2017-08-05T15:00:00Z,26.4679,-82.0631,2.25,4.9,1111122 
SCCF RECON,ioos:station:SCCF:11:1,2017-08-05T16:00:00Z,26.4679,-82.0631,2.32,4.61,1111122 
SCCF RECON,ioos:station:SCCF:11:1,2017-08-05T17:00:00Z,26.4679,-82.0631,2.36,4.53,1111122 
SCCF RECON,ioos:station:SCCF:11:1,2017-08-05T18:00:00Z,26.4679,-82.0631,2.367,5.48,1111122 
SCCF RECON,ioos:station:SCCF:11:1,2017-08-05T19:00:00Z,26.4679,-82.0631,2.29,5.54,1111122 
SCCF RECON,ioos:station:SCCF:11:1,2017-08-05T20:00:00Z,26.4679,-82.0631,2.17,5.59,1111122 
SCCF RECON,ioos:station:SCCF:11:1,2017-08-05T21:00:00Z,26.4679,-82.0631,2.02,5.53,1111122 
SCCF RECON,ioos:station:SCCF:11:1,2017-08-05T22:00:00Z,26.4679,-82.0631,1.88,5.6,1111122 
SCCF RECON,ioos:station:SCCF:11:1,2017-08-05T23:00:00Z,26.4679,-82.0631,1.74,5.72,1111122 
SCCF RECON,ioos:station:SCCF:11:1,2017-08-06T00:00:00Z,26.4679,-82.0631,1.641,5.49,1111122 
SCCF RECON,ioos:station:SCCF:11:1,2017-08-06T01:00:00Z,26.4679,-82.0631,1.611,5.4,1111122 
SCCF RECON,ioos:station:SCCF:11:1,2017-08-06T02:00:00Z,26.4679,-82.0631,1.68,5.33,1111122 
SCCF RECON,ioos:station:SCCF:11:1,2017-08-06T03:00:00Z,26.4679,-82.0631,1.76,5.81,1111122 
SCCF RECON,ioos:station:SCCF:11:1,2017-08-06T04:00:00Z,26.4679,-82.0631,1.9,5.52,1111122 
SCCF RECON,ioos:station:SCCF:11:1,2017-08-06T05:00:00Z,26.4679,-82.0631,2.02,5.28,1111122 
SCCF RECON,ioos:station:SCCF:11:1,2017-08-06T06:00:00Z,26.4679,-82.0631,2.095,5.38,1111122 
SCCF RECON,ioos:station:SCCF:11:1,2017-08-06T07:00:00Z,26.4679,-82.0631,2.126,5.17,1111122 
SCCF RECON,ioos:station:SCCF:11:1,2017-08-06T08:00:00Z,26.4679,-82.0631,2.082,4.86,1111122 
SCCF RECON,ioos:station:SCCF:11:1,2017-08-06T09:00:00Z,26.4679,-82.0631,2.02,4.69,1111122 
SCCF RECON,ioos:station:SCCF:11:1,2017-08-06T10:00:00Z,26.4679,-82.0631,1.96,4.27,1111122 
SCCF RECON,ioos:station:SCCF:11:1,2017-08-06T11:00:00Z,26.4679,-82.0631,1.92,4.09,1111122 
SCCF RECON,ioos:station:SCCF:11:1,2017-08-06T12:00:00Z,26.4679,-82.0631,1.902,4.13,1111122 
SCCF RECON,ioos:station:SCCF:11:1,2017-08-06T13:00:00Z,26.4679,-82.0631,1.959,4.79,1111122 
SCCF RECON,ioos:station:SCCF:11:1,2017-08-06T14:00:00Z,26.4679,-82.0631,2.054,5.03,1111122 
SCCF RECON,ioos:station:SCCF:11:1,2017-08-06T15:00:00Z,26.4679,-82.0631,2.162,4.91,1111122 
SCCF RECON,ioos:station:SCCF:11:1,2017-08-06T16:00:00Z,26.4679,-82.0631,2.266,4.9,1111122 
SCCF RECON,ioos:station:SCCF:11:1,2017-08-06T17:00:00Z,26.4679,-82.0631,2.32,4.88,1111122 
SCCF RECON,ioos:station:SCCF:11:1,2017-08-06T18:00:00Z,26.4679,-82.0631,2.32,5.08,1111122 
SCCF RECON,ioos:station:SCCF:11:1,2017-08-06T19:00:00Z,26.4679,-82.0631,2.32,5.81,1111122 
SCCF RECON,ioos:station:SCCF:11:1,2017-08-06T20:00:00Z,26.4679,-82.0631,2.2,5.59,1111122 
SCCF RECON,ioos:station:SCCF:11:1,2017-08-06T21:00:00Z,26.4679,-82.0631,2.05,5.51,1111122 
SCCF RECON,ioos:station:SCCF:11:1,2017-08-06T22:00:00Z,26.4679,-82.0631,1.91,5.48,1111122 
SCCF RECON,ioos:station:SCCF:11:1,2017-08-06T23:00:00Z,26.4679,-82.0631,1.77,5.44,1111122 
SCCF RECON,ioos:station:SCCF:11:1,2017-08-07T00:00:00Z,26.4679,-82.0631,1.65,5.27,1111122 
SCCF RECON,ioos:station:SCCF:11:1,2017-08-07T01:00:00Z,26.4679,-82.0631,1.58,5.59,1111122 
SCCF RECON,ioos:station:SCCF:11:1,2017-08-07T02:00:00Z,26.4679,-82.0631,1.608,4.95,1111122 
SCCF RECON,ioos:station:SCCF:11:1,2017-08-07T03:00:00Z,26.4679,-82.0631,1.7,5.33,1111122 
SCCF RECON,ioos:station:SCCF:11:1,2017-08-07T04:00:00Z,26.4679,-82.0631,1.81,5.2,1111122 
SCCF RECON,ioos:station:SCCF:11:1,2017-08-07T05:00:00Z,26.4679,-82.0631,1.94,5.02,1111122 
SCCF RECON,ioos:station:SCCF:11:1,2017-08-07T06:00:00Z,26.4679,-82.0631,2.03,4.86,1111122 
SCCF RECON,ioos:station:SCCF:11:1,2017-08-07T07:00:00Z,26.4679,-82.0631,2.08,4.63,1111122 
SCCF RECON,ioos:station:SCCF:11:1,2017-08-07T08:00:00Z,26.4679,-82.0631,2.08,4.7,1111122 
SCCF RECON,ioos:station:SCCF:11:1,2017-08-07T09:00:00Z,26.4679,-82.0631,2.021,4.57,1111122 
SCCF RECON,ioos:station:SCCF:11:1,2017-08-07T10:00:00Z,26.4679,-82.0631,1.963,4.32,1111122 
SCCF RECON,ioos:station:SCCF:11:1,2017-08-07T11:00:00Z,26.4679,-82.0631,1.938,3.72,1111122 
SCCF RECON,ioos:station:SCCF:11:1,2017-08-07T12:00:00Z,26.4679,-82.0631,1.931,4.01,1111122 
SCCF RECON,ioos:station:SCCF:11:1,2017-08-07T13:00:00Z,26.4679,-82.0631,1.93,4.42,1111122 
SCCF RECON,ioos:station:SCCF:11:1,2017-08-07T14:00:00Z,26.4679,-82.0631,2.01,4.8,1111122 
SCCF RECON,ioos:station:SCCF:11:1,2017-08-07T15:00:00Z,26.4679,-82.0631,2.128,4.84,1111122 
SCCF RECON,ioos:station:SCCF:11:1,2017-08-07T16:00:00Z,26.4679,-82.0631,2.24,4.93,1111122 
SCCF RECON,ioos:station:SCCF:11:1,2017-08-07T17:00:00Z,26.4679,-82.0631,2.33,4.93,1111122 
SCCF RECON,ioos:station:SCCF:11:1,2017-08-07T18:00:00Z,26.4679,-82.0631,2.37,5.02,1111122 
SCCF RECON,ioos:station:SCCF:11:1,2017-08-07T19:00:00Z,26.4679,-82.0631,2.35,5.51,1111122 
SCCF RECON,ioos:station:SCCF:11:1,2017-08-07T20:00:00Z,26.4679,-82.0631,2.31,6.06,1111122 
SCCF RECON,ioos:station:SCCF:11:1,2017-08-07T21:00:00Z,26.4679,-82.0631,2.16,5.75,1111122 
SCCF RECON,ioos:station:SCCF:11:1,2017-08-07T22:00:00Z,26.4679,-82.0631,2.02,5.76,1111122 
SCCF RECON,ioos:station:SCCF:11:1,2017-08-07T23:00:00Z,26.4679,-82.0631,1.87,5.47,1111122 
SCCF RECON,ioos:station:SCCF:11:1,2017-08-08T00:00:00Z,26.4679,-82.0631,1.74,5.66,1111122 
SCCF RECON,ioos:station:SCCF:11:1,2017-08-08T01:00:00Z,26.4679,-82.0631,1.63,5.03,1111122 
SCCF RECON,ioos:station:SCCF:11:1,2017-08-08T02:00:00Z,26.4679,-82.0631,1.6,5.12,1111122 
SCCF RECON,ioos:station:SCCF:11:1,2017-08-08T03:00:00Z,26.4679,-82.0631,1.711,5.18,1111122 
SCCF RECON,ioos:station:SCCF:11:1,2017-08-08T04:00:00Z,26.4679,-82.0631,1.88,5.12,1111122 
SCCF RECON,ioos:station:SCCF:11:1,2017-08-08T05:00:00Z,26.4679,-82.0631,2.019,5.19,1111122 
SCCF RECON,ioos:station:SCCF:11:1,2017-08-08T06:00:00Z,26.4679,-82.0631,2.1,4.88,1111122 
SCCF RECON,ioos:station:SCCF:11:1,2017-08-08T07:00:00Z,26.4679,-82.0631,2.14,4.88,1111122 
SCCF RECON,ioos:station:SCCF:11:1,2017-08-08T08:00:00Z,26.4679,-82.0631,2.12,4.93,1111122 
SCCF RECON,ioos:station:SCCF:11:1,2017-08-08T09:00:00Z,26.4679,-82.0631,2.06,4.63,1111122 
SCCF RECON,ioos:station:SCCF:11:1,2017-08-08T10:00:00Z,26.4679,-82.0631,1.98,4.28,1111122 
SCCF RECON,ioos:station:SCCF:11:1,2017-08-08T11:00:00Z,26.4679,-82.0631,1.9,4.03,1111122 
SCCF RECON,ioos:station:SCCF:11:1,2017-08-08T12:00:00Z,26.4679,-82.0631,1.84,3.82,1111122 
SCCF RECON,ioos:station:SCCF:11:1,2017-08-08T13:00:00Z,26.4679,-82.0631,1.854,3.84,1111122 
SCCF RECON,ioos:station:SCCF:11:1,2017-08-08T14:00:00Z,26.4679,-82.0631,1.938,4.7,1111122 
SCCF RECON,ioos:station:SCCF:11:1,2017-08-08T15:00:00Z,26.4679,-82.0631,2.084,4.94,1111122 
SCCF RECON,ioos:station:SCCF:11:1,2017-08-08T16:00:00Z,26.4679,-82.0631,2.21,4.95,1111122 
SCCF RECON,ioos:station:SCCF:11:1,2017-08-08T17:00:00Z,26.4679,-82.0631,2.29,4.85,1111122 
SCCF RECON,ioos:station:SCCF:11:1,2017-08-08T18:00:00Z,26.4679,-82.0631,2.34,5.11,1111122 
SCCF RECON,ioos:station:SCCF:11:1,2017-08-08T19:00:00Z,26.4679,-82.0631,2.344,4.77,1111122 
SCCF RECON,ioos:station:SCCF:11:1,2017-08-08T20:00:00Z,26.4679,-82.0631,2.31,5.73,1111122 
SCCF RECON,ioos:station:SCCF:11:1,2017-08-08T21:00:00Z,26.4679,-82.0631,2.183,5.89,1111122 
SCCF RECON,ioos:station:SCCF:11:1,2017-08-08T22:00:00Z,26.4679,-82.0631,2.017,5.76,1111122 
SCCF RECON,ioos:station:SCCF:11:1,2017-08-08T23:00:00Z,26.4679,-82.0631,1.85,5.52,1111122 
SCCF RECON,ioos:station:SCCF:11:1,2017-08-09T00:00:00Z,26.4679,-82.0631,1.719,5.51,1111122 
SCCF RECON,ioos:station:SCCF:11:1,2017-08-09T01:00:00Z,26.4679,-82.0631,1.6,5.15,1111122 
SCCF RECON,ioos:station:SCCF:11:1,2017-08-09T02:00:00Z,26.4679,-82.0631,1.56,5.19,1111122 
SCCF RECON,ioos:station:SCCF:11:1,2017-08-09T03:00:00Z,26.4679,-82.0631,1.638,4.88,1111122 
SCCF RECON,ioos:station:SCCF:11:1,2017-08-09T04:00:00Z,26.4679,-82.0631,1.812,5.17,1111122 
SCCF RECON,ioos:station:SCCF:11:1,2017-08-09T05:00:00Z,26.4679,-82.0631,1.96,5.24,1111122 
SCCF RECON,ioos:station:SCCF:11:1,2017-08-09T06:00:00Z,26.4679,-82.0631,2.06,5.04,1111122 
SCCF RECON,ioos:station:SCCF:11:1,2017-08-09T07:00:00Z,26.4679,-82.0631,2.13,4.8,1111122 
SCCF RECON,ioos:station:SCCF:11:1,2017-08-09T08:00:00Z,26.4679,-82.0631,2.16,4.77,1111122 
SCCF RECON,ioos:station:SCCF:11:1,2017-08-09T09:00:00Z,26.4679,-82.0631,2.111,4.96,1111122 
SCCF RECON,ioos:station:SCCF:11:1,2017-08-09T10:00:00Z,26.4679,-82.0631,2.01,4.3,1111122 
SCCF RECON,ioos:station:SCCF:11:1,2017-08-09T11:00:00Z,26.4679,-82.0631,1.94,3.88,1111122 
SCCF RECON,ioos:station:SCCF:11:1,2017-08-09T12:00:00Z,26.4679,-82.0631,1.89,3.81,1111122 
SCCF RECON,ioos:station:SCCF:11:1,2017-08-09T13:00:00Z,26.4679,-82.0631,1.85,3.64,1111122 
SCCF RECON,ioos:station:SCCF:11:1,2017-08-09T14:00:00Z,26.4679,-82.0631,1.869,3.78,1111122 
SCCF RECON,ioos:station:SCCF:11:1,2017-08-09T15:00:00Z,26.4679,-82.0631,1.95,4.03,1111122 
SCCF RECON,ioos:station:SCCF:11:1,2017-08-09T16:00:00Z,26.4679,-82.0631,2.09,4.8,1111122 
SCCF RECON,ioos:station:SCCF:11:1,2017-08-09T17:00:00Z,26.4679,-82.0631,2.22,4.85,1111122 
SCCF RECON,ioos:station:SCCF:11:1,2017-08-09T18:00:00Z,26.4679,-82.0631,2.3,4.57,1111122 
SCCF RECON,ioos:station:SCCF:11:1,2017-08-09T19:00:00Z,26.4679,-82.0631,2.35,4.78,1111122 
SCCF RECON,ioos:station:SCCF:11:1,2017-08-09T20:00:00Z,26.4679,-82.0631,2.36,5.62,1111122 
SCCF RECON,ioos:station:SCCF:11:1,2017-08-09T21:00:00Z,26.4679,-82.0631,2.22,5.72,1111122 
SCCF RECON,ioos:station:SCCF:11:1,2017-08-09T22:00:00Z,26.4679,-82.0631,2.067,5.38,1111122 
SCCF RECON,ioos:station:SCCF:11:1,2017-08-09T23:00:00Z,26.4679,-82.0631,1.904,5.14,1111122 
SCCF RECON,ioos:station:SCCF:11:1,2017-08-10T00:00:00Z,26.4679,-82.0631,1.77,4.85,1111122 
SCCF RECON,ioos:station:SCCF:11:1,2017-08-10T01:00:00Z,26.4679,-82.0631,1.651,4.59,1111122 
SCCF RECON,ioos:station:SCCF:11:1,2017-08-10T02:00:00Z,26.4679,-82.0631,1.59,4.57,1111122 
SCCF RECON,ioos:station:SCCF:11:1,2017-08-10T03:00:00Z,26.4679,-82.0631,1.6,4.54,1111122 
SCCF RECON,ioos:station:SCCF:11:1,2017-08-10T04:00:00Z,26.4679,-82.0631,1.7,4.44,1111122 
SCCF RECON,ioos:station:SCCF:11:1,2017-08-10T05:00:00Z,26.4679,-82.0631,1.83,4.64,1111122 
SCCF RECON,ioos:station:SCCF:11:1,2017-08-10T06:00:00Z,26.4679,-82.0631,1.955,4.67,1111122 
SCCF RECON,ioos:station:SCCF:11:1,2017-08-10T07:00:00Z,26.4679,-82.0631,2.06,4.7,1111122 
SCCF RECON,ioos:station:SCCF:11:1,2017-08-10T08:00:00Z,26.4679,-82.0631,2.11,4.13,1111122 
SCCF RECON,ioos:station:SCCF:11:1,2017-08-10T09:00:00Z,26.4679,-82.0631,2.11,4.5,1111122 
SCCF RECON,ioos:station:SCCF:11:1,2017-08-10T10:00:00Z,26.4679,-82.0631,2.05,4.25,1111122 
SCCF RECON,ioos:station:SCCF:11:1,2017-08-10T11:00:00Z,26.4679,-82.0631,1.96,3.82,1111122 
SCCF RECON,ioos:station:SCCF:11:1,2017-08-10T12:00:00Z,26.4679,-82.0631,1.87,3.54,1111122 
SCCF RECON,ioos:station:SCCF:11:1,2017-08-10T13:00:00Z,26.4679,-82.0631,1.802,3.36,1111122 
SCCF RECON,ioos:station:SCCF:11:1,2017-08-10T14:00:00Z,26.4679,-82.0631,1.77,3.05,1111122 
SCCF RECON,ioos:station:SCCF:11:1,2017-08-10T15:00:00Z,26.4679,-82.0631,1.813,3.72,1111122 
SCCF RECON,ioos:station:SCCF:11:1,2017-08-10T16:00:00Z,26.4679,-82.0631,1.937,4.25,1111122 
SCCF RECON,ioos:station:SCCF:11:1,2017-08-10T19:00:00Z,26.4679,-82.0631,1.758,5.21,1111122 
SCCF RECON,ioos:station:SCCF:11:1,2017-08-10T20:00:00Z,26.4679,-82.0631,2.053,5.23,1111122 
SCCF RECON,ioos:station:SCCF:11:1,2017-08-10T21:00:00Z,26.4679,-82.0631,2.159,6.7,1111122 
SCCF RECON,ioos:station:SCCF:11:1,2017-08-10T22:00:00Z,26.4679,-82.0631,2.1,6.5,1111122 
SCCF RECON,ioos:station:SCCF:11:1,2017-08-10T23:00:00Z,26.4679,-82.0631,1.96,6.2,1111122 
SCCF RECON,ioos:station:SCCF:11:1,2017-08-11T00:00:00Z,26.4679,-82.0631,1.83,5.99,1111122 
SCCF RECON,ioos:station:SCCF:11:1,2017-08-11T01:00:00Z,26.4679,-82.0631,1.72,5.94,1111122 
SCCF RECON,ioos:station:SCCF:11:1,2017-08-11T02:00:00Z,26.4679,-82.0631,1.6,5.21,1111122 
SCCF RECON,ioos:station:SCCF:11:1,2017-08-11T03:00:00Z,26.4679,-82.0631,1.549,4.95,1111122 
SCCF RECON,ioos:station:SCCF:11:1,2017-08-11T04:00:00Z,26.4679,-82.0631,1.58,5.45,1111122 
SCCF RECON,ioos:station:SCCF:11:1,2017-08-11T05:00:00Z,26.4679,-82.0631,1.71,5.57,1111122 
SCCF RECON,ioos:station:SCCF:11:1,2017-08-11T06:00:00Z,26.4679,-82.0631,1.86,5.54,1111122 
SCCF RECON,ioos:station:SCCF:11:1,2017-08-11T07:00:00Z,26.4679,-82.0631,1.99,5.54,1111122 
SCCF RECON,ioos:station:SCCF:11:1,2017-08-11T08:00:00Z,26.4679,-82.0631,2.08,4.87,1111122 
SCCF RECON,ioos:station:SCCF:11:1,2017-08-11T09:00:00Z,26.4679,-82.0631,2.12,5.17,1111122 
SCCF RECON,ioos:station:SCCF:11:1,2017-08-11T10:00:00Z,26.4679,-82.0631,2.121,5.58,1111122 
SCCF RECON,ioos:station:SCCF:11:1,2017-08-11T11:00:00Z,26.4679,-82.0631,2.033,5.22,1111122 
SCCF RECON,ioos:station:SCCF:11:1,2017-08-11T12:00:00Z,26.4679,-82.0631,1.89,4.43,1111122 
SCCF RECON,ioos:station:SCCF:11:1,2017-08-11T13:00:00Z,26.4679,-82.0631,1.77,4.14,1111122 
SCCF RECON,ioos:station:SCCF:11:1,2017-08-11T14:00:00Z,26.4679,-82.0631,1.73,4.31,1111122 
SCCF RECON,ioos:station:SCCF:11:1,2017-08-11T15:00:00Z,26.4679,-82.0631,1.726,3.95,1111122 
SCCF RECON,ioos:station:SCCF:11:1,2017-08-11T16:00:00Z,26.4679,-82.0631,1.78,5.01,1111122 
SCCF RECON,ioos:station:SCCF:11:1,2017-08-11T17:00:00Z,26.4679,-82.0631,1.88,5.1,1111122 
SCCF RECON,ioos:station:SCCF:11:1,2017-08-11T18:00:00Z,26.4679,-82.0631,2.01,6.02,1111122 
SCCF RECON,ioos:station:SCCF:11:1,2017-08-11T19:00:00Z,26.4679,-82.0631,2.1,6.06,1111122 
SCCF RECON,ioos:station:SCCF:11:1,2017-08-11T20:00:00Z,26.4679,-82.0631,2.169,6.64,1111122 
SCCF RECON,ioos:station:SCCF:11:1,2017-08-11T21:00:00Z,26.4679,-82.0631,2.19,6.08,1111122 
SCCF RECON,ioos:station:SCCF:11:1,2017-08-11T22:00:00Z,26.4679,-82.0631,2.16,7.18,1111122 
SCCF RECON,ioos:station:SCCF:11:1,2017-08-11T23:00:00Z,26.4679,-82.0631,2.04,6.69,1111122 